Terminal Aerodrome Forecast
Issued by NWS Mt. Holly, NJ

Home | Current Version | Previous Version | Text Only | Print | Product List | Glossary On
Versions: 1 2 3 4 5 6 7 8 9 10 11 12 13 14 15 16 17 18 19 20 21
000
FTUS41 KPHI 222000 AAA
TAFACY
TAF AMD
KACY 222044Z 2221/2318 08010KT P6SM BKN025
      TEMPO 2221/2301 SCT025 BKN050
     FM230700 04006KT 5SM BR OVC007
     FM231500 07010KT P6SM OVC015=

USA.gov is the U.S. government's official web portal to all federal, state and local government web resources and services.